Regional Weather Roundup
Issued by NWS Cleveland, OH

Home | Current Version | Previous Version | Text Only | Print | Product List | Glossary Off
Versions: 1 2 3 4 5 6 7 8 9 10 11 12 13 14 15 16 17 18 19 20 21 22 23 24 25 26 27 28 29 30 31 32 33 34 35 36 37 38 39 40 41 42 43 44 45 46 47 48 49 50

000
ASUS41 KCLE 281010
RWRCLE
OHIO REGIONAL WEATHER ROUNDUP
NATIONAL WEATHER SERVICE CLEVELAND, OH
600 AM EDT TUE JUL 28 2015

NOTE: "FAIR" INDICATES FEW OR NO CLOUDS BELOW 12,000 FEET WITH NO
SIGNIFICANT WEATHER AND/OR OBSTRUCTIONS TO VISIBILITY.

OHZ001>008-015>018-024>027-034-035-043-044-281100-
   NORTHWEST OHIO

CITY           SKY/WX    TMP DP  RH WIND       PRES   REMARKS
DEFIANCE       CLEAR     64  60  87 NE3       30.02S
FINDLAY        CLEAR     68  63  84 E3        30.01R
TOLEDO EXPRESS CLEAR     63  62  97 CALM      30.02R
TOLEDO EXEC    CLEAR     67  62  84 CALM      30.03R
LIMA           CLEAR     66  62  87 E6        30.02R
$$

OHZ009>014-019>023-028>033-038-089-281100-
   NORTHEAST OHIO

CITY           SKY/WX    TMP DP  RH WIND       PRES   REMARKS
CLE-HOPKINS    PTCLDY    69  60  73 NE6       30.04S
CLE-LAKEFRONT  CLEAR     72  62  71 CALM      30.01S
CUY CO. ARPT   NOT AVBL
LORAIN-ELYRIA  CLEAR     61  60  97 CALM      30.04R
ASHTABULA      CLEAR     60  59  96 CALM      30.06R
AKRON-CANTON   PTCLDY    65  60  84 NE5       30.04R
WOOSTER        CLEAR     60  59  96 CALM      30.04S FOG
MANSFIELD      CLEAR     69  62  78 CALM      30.04S
YOUNGSTOWN     CLEAR     63  61  93 E7        30.04S
$$

OHZ042-051>053-060>062-070>072-077>081-281100-
  SOUTHWEST OHIO

CITY           SKY/WX    TMP DP  RH WIND       PRES   REMARKS
CINC-COVINGTON PTCLDY    73  71  93 CALM      29.99R FOG
CINC-LUNKEN    FOG       70  70 100 CALM      29.99R VSB 1/4
HAMILTON       PTCLDY    69  68  96 CALM      30.00R FOG
DAYTON         MOCLDY    69  66  90 NE6       30.02R
WRIGHT-PAT AFB PTCLDY    71  67  88 NE2       30.01R
DAYTON GENERAL   N/A    N/A N/A N/A MISG      30.00R
WILMINGTON     CLOUDY    70  68  93 E3        30.00S FOG
$$

OHZ036-037-039>041-045>050-054>059-063>069-073>076-082>088-281100-
  CENTRAL AND SOUTHEAST OHIO

CITY           SKY/WX    TMP DP  RH WIND       PRES   REMARKS
COLUMBUS       PTCLDY    70  64  81 NE5       30.00R
OSU AIRPORT    PTCLDY    67  64  90 CALM      30.01R
BOLTON FIELD   CLEAR     68  66  92 CALM      30.01S
RICKENBACK AFB CLEAR     70  65  85 CALM      30.00R
NEWARK         CLEAR     66  64  93 CALM      30.00S
MARION         CLEAR     65  61  87 CALM      30.03R
LANCASTER      CLOUDY    67  65  93 CALM      30.00S
ZANESVILLE     CLEAR     68  64  87 N3        30.00S
NEW PHILLY     CLEAR     64  63  96 CALM      30.02S
$$


USA.gov is the U.S. government's official web portal to all federal, state and local government web resources and services.